STARLINK-4141 (53138 NORAD) Tracking and Keplerian Element Data

This shows tracking and keplerian element data for the satellite.

Feedback or suggestion? Click here.




ElementValue
Catalog53138
NameSTARLINK-4141
Epoch Orbit1178
Epoch Day270.25001157
Epoch Year2022
RAAN62.9492
Inclination53.2172
Eccentricity0.0001797
Argument of Perigee49.6778
Mean Anonmoly60.9731
Mean Motion15.08813892
Decay Rate0.0003785
L11 53138U 22083G 22270.25001157 .00037850 00000+0 23852-2 0 9993
L22 53138 53.2172 62.9492 0001797 49.6778 60.9731 15.08813892 11787

Live tracking and technical data element details for STARLINK-4141 (NORAD 53138). STARLINK-4141 can be tracked NOW for your location showing map with azimuth and elevation plus other details from your city location.

Track the satellite on the map from your city or location and see movement details for azimuth, elevation, latitude, longitude, range, height, and movement on the map or in text.







IsCatalogInMostPopularTable: catalog: 53138, numindb: 6
Update: records affected: 1



GetName: 53138 STARLINK-4141

Hit Count: updated at: Fri, 30 Sep 2022 02:23:36 GMT